Location: Elende
(51.4317°N, 10.6316°E)
Time: 11:21:50
(UTC+00:00)

Cosmos 2082 Rocket - Pass Details

Date: 18 September 2020
Orbit: 834 x 853 km, 71.0° (Epoch: 25 October)

Event Time Altitude Azimuth Distance (km) Brightness Sun altitude
Rises 22:23:05 0° 322° (NW) 3,393 6.2 -36.2°
Reaches altitude 10° 22:25:53 10° 311° (NW) 2,455 5.1 -36.3°
Enters shadow 22:28:07 20° 292° (WNW) 1,856 4.2 -36.4°
